This is the latest recevied weather packets stored in our database for station/object N2RDT. If no packets are shown the sender has not sent any weather packets the latest 10 day(s).
| Time | Temp. | Humidity | Pressure | Rain* | Wind** | Luminosity | Snow |
|---|---|---|---|---|---|---|---|
| 1777633569 | 9.44° C | 72% | 1016 hPa | 0 mm | - | 67 W/m² | - |
| 1777633267 | 8.89° C | 72% | 1015.9 hPa | 0 mm | - | 51 W/m² | - |
| 1777632964 | 8.89° C | 74% | 1015.7 hPa | 0 mm | - | 37 W/m² | - |
| 1777632660 | 8.89° C | 75% | 1015.7 hPa | 0 mm | - | 21 W/m² | - |
| 1777632357 | 8.89° C | 75% | 1016 hPa | 0 mm | - | 18 W/m² | - |
| 1777632054 | 8.89° C | 75% | 1016.2 hPa | 0 mm | - | 16 W/m² | - |
| 1777631752 | 8.89° C | 74% | 1015.7 hPa | 0 mm | - | 11 W/m² | - |
| 1777631449 | 8.89° C | 75% | 1015.9 hPa | 0 mm | - | 7 W/m² | - |
| 1777631146 | 8.89° C | 74% | 1015.5 hPa | 0 mm | - | 1 W/m² | - |
| 1777630843 | 8.89° C | 75% | 1015.5 hPa | 0 mm | - | 2 W/m² | - |
| 1777630539 | 8.89° C | 75% | 1015.4 hPa | 0 mm | - | 1 W/m² | - |
| 1777630236 | 8.33° C | 76% | 1015.4 hPa | 0 mm | - | 0 W/m² | - |
| 1777629934 | 8.33° C | 75% | 1015.6 hPa | 0 mm | - | 0 W/m² | - |
| 1777629632 | 8.33° C | 75% | 1015.3 hPa | 0 mm | - | 0 W/m² | - |
| 1777629328 | 8.33° C | 75% | 1015.4 hPa | 0 mm | - | 0 W/m² | - |
| 1777629023 | 8.33° C | 75% | 1015.5 hPa | 0 mm | - | 0 W/m² | - |
| 1777628721 | 8.33° C | 75% | 1015 hPa | 0 mm | - | 0 W/m² | - |
| 1777628416 | 8.33° C | 76% | 1015.4 hPa | 0 mm | - | 0 W/m² | - |
| 1777628113 | 8.33° C | 76% | 1015.4 hPa | 0 mm | - | 0 W/m² | - |
| 1777627809 | 8.33° C | 76% | 1015.2 hPa | 0 mm | - | 0 W/m² | - |
| 1777627508 | 8.33° C | 76% | 1015.3 hPa | 0 mm | - | 0 W/m² | - |
| 1777627203 | 8.33° C | 76% | 1015.4 hPa | 0 mm | - | 0 W/m² | - |
| 1777626900 | 8.33° C | 76% | 1015.2 hPa | 0 mm | - | 0 W/m² | - |
| 1777626597 | 8.33° C | 76% | 1015.6 hPa | 0 mm | - | 0 W/m² | - |
| 1777626297 | 8.33° C | 77% | 1015.6 hPa | 0 mm | - | 0 W/m² | - |
* Rain latest hour (hover to see other rain measurements)
** Current wind speed in m/s (hover to see current wind gust speed)